Cloud_Cover
24 24 20 12 0 0 0 0 0 0 0 8 24 24 24 32 48 36 20 24 36 32 12 8 8 8 0 0 0 0 0 0 0 0 0 8 12 8 12 24 44 56 68 80 88 92 92 92 92 92 92 92 92 92 92 92 92 92 92 92 92 92 92 92 92 92 92 92 76
24 24 24 32 24 20 20 24 20 12 8 20 48 56 64 76 80 76 56 44 36 36 32 24 12 12 12 8 0 0 0 0 12 24 32 36 56 68 76 80 80 88 88 88 88 88 88 88 92 92 92 92 92 92 92 92 92 92 92 92 92 92 92 92 92 92 92 92 92
56 44 36 56 48 44 44 56 32 24 32 36 48 76 88 88 88 88 80 56 32 32 48 64 32 20 12 8 8 12 20 20 20 32 56 80 88 88 92 92 92 92 92 92 88 88 88 88 92 92 92 92 92 92 92 92 92 92 88 92 92 92 92 92 92 92 92 92 92
76 76 64 48 48 56 64 56 36 44 64 80 68 76 88 88 88 88 80 44 36 64 76 44 32 24 24 24 44 36 32 36 56 76 88 88 92 92 92 92 92 88 88 88 88 88 88 88 92 92 92 92 92 92 92 92 92 92 92 92 92 92 92 92 88 92 92 92 92
32 56 80 64 56 64 76 88 80 88 88 88 88 88 88 88 88 88 88 88 88 88 80 48 48 48 56 88 92 76 64 64 80 92 92 88 88 88 92 92 88 88 88 88 88 88 88 92 92 92 92 92 92 92 88 64 76 88 92 92 92 92 92 92 92 92 92 92 92
24 24 36 88 88 88 88 88 88 88 88 88 88 88 88 88 92 92 92 92 88 68 64 92 92 92 92 92 92 92 88 88 92 92 92 92 64 56 76 92 80 80 88 88 88 92 92 92 92 92 88 92 92 92 92 92 92 92 92 92 92 92 92 92 92 92 92 92 92
88 68 48 48 76 88 88 88 88 88 88 88 88 88 88 88 88 92 92 92 88 88 92 92 92 92 92 92 92 92 88 80 80 88 88 92 88 88 88 92 80 80 88 88 88 92 92 92 92 88 88 88 92 92 80 36 56 76 92 92 92 92 92 92 92 92 92 92 92
88 80 80 88 88 88 88 80 80 88 88 88 88 88 88 88 88 88 88 88 88 92 92 92 92 92 92 92 92 92 92 88 92 80 76 88 88 88 88 88 92 92 88 88 92 92 92 92 88 88 88 88 80 88 92 92 92 92 92 92 92 92 92 92 92 92 92 92 92
80 64 56 88 80 80 80 80 80 88 88 88 88 88 88 88 80 80 88 92 80 88 92 92 92 92 92 92 92 92 92 92 92 88 76 68 80 88 88 88 88 80 80 80 92 88 88 92 80 80 88 92 92 92 92 92 92 92 92 92 92 92 92 92 92 92 92 92 92
76 68 68 80 64 68 80 80 80 88 88 88 88 88 88 92 88 88 92 92 92 92 92 92 92 92 92 92 92 92 92 92 92 92 88 76 76 76 76 80 88 88 80 80 88 76 68 88 80 76 80 92 92 92 92 92 92 92 92 92 92 92 92 92 92 92 92 92 92
80 80 80 80 80 80 80 80 88 88 88 88 88 88 88 88 88 88 92 92 92 92 92 88 92 92 92 92 92 92 92 92 92 92 92 92 92 88 80 92 88 92 88 80 80 68 68 88 80 80 80 92 92 92 92 92 92 92 92 92 92 92 92 92 92 92 92 92 92
88 80 76 80 80 80 80 88 88 88 88 88 88 88 88 88 88 88 92 92 92 92 92 88 92 92 92 92 92 92 92 92 92 92 92 92 92 92 92 92 92 92 92 80 76 68 68 80 88 92 92 92 92 92 92 92 92 92 92 92 92 92 92 92 92 92 92 92 92
88 80 80 76 80 80 80 88 88 88 88 88 88 88 88 88 88 88 92 88 92 92 92 88 92 92 92 92 92 92 92 92 92 92 92 88 92 88 80 80 88 92 92 80 80 80 80 76 92 92 92 92 92 92 92 92 92 92 92 92 92 92 92 92 92 92 92 92 92
88 80 80 80 80 88 88 88 88 88 88 88 88 88 88 88 88 88 92 88 88 92 92 88 88 92 92 92 92 92 92 92 88 88 92 92 92 88 76 68 88 92 92 92 88 88 88 92 92 92 92 92 92 92 92 92 92 92 92 92 92 92 92 88 88 92 92 92 92
88 80 80 80 88 88 88 88 88 88 88 88 88 88 88 88 88 88 88 88 88 88 88 92 92 92 92 92 92 92 92 92 88 92 92 92 92 92 92 92 92 92 92 88 80 68 76 88 92 92 92 92 92 92 92 92 92 92 92 92 92 92 92 92 92 92 92 92 92
88 80 80 80 80 80 80 80 88 88 88 88 88 88 88 88 88 88 88 88 88 76 76 88 92 92 92 92 92 92 88 92 92 92 92 92 92 92 92 92 92 92 88 80 76 68 76 92 92 92 92 92 92 92 92 92 92 92 92 92 92 92 92 92 92 92 92 92 92
88 80 80 80 80 80 80 88 88 88 88 88 88 88 88 88 88 88 88 88 88 80 76 76 88 92 92 92 92 88 88 92 92 92 92 92 92 92 92 92 92 92 92 92 80 80 88 92 92 92 92 92 92 92 92 92 92 92 92 92 92 92 92 92 92 92 92 92 92
88 80 80 80 80 80 80 88 88 88 88 88 88 88 88 88 88 88 88 88 88 80 80 76 80 88 92 92 92 92 92 92 92 92 92 88 92 88 88 88 92 92 92 92 92 92 92 92 92 92 92 92 92 92 92 92 92 92 92 92 92 92 92 92 92 92 92 92 92
88 80 80 80 80 80 88 88 88 88 88 88 88 80 80 80 80 88 88 88 88 88 88 92 88 88 88 92 92 92 92 92 92 92 92 92 92 92 88 92 92 92 92 92 92 92 92 92 92 92 92 92 92 92 92 92 92 92 92 92 92 92 92 92 92 92 92 92 88
88 88 88 88 88 88 88 88 88 88 80 80 80 80 80 80 80 80 80 88 88 88 92 92 92 88 88 92 92 92 92 92 92 92 92 92 92 92 92 92 92 92 92 92 92 92 92 92 92 92 92 92 92 92 92 92 92 92 92 92 92 92 92 92 92 92 92 92 88
88 88 88 88 88 88 88 88 88 88 88 80 80 80 80 80 80 80 80 80 88 88 88 88 92 92 80 76 88 92 92 92 88 88 92 92 92 92 92 92 92 92 92 92 92 92 92 92 92 92 92 92 92 92 92 92 92 92 92 92 92 92 92 92 92 92 92 92 88
88 88 88 88 88 88 88 92 88 88 88 80 80 80 80 80 80 80 80 80 88 88 88 88 92 92 88 80 64 64 76 92 88 88 92 80 88 92 92 92 92 92 92 92 92 92 92 92 92 92 92 92 92 92 92 92 92 92 92 92 92 92 92 92 92 92 92 88 80
88 88 88 88 88 80 80 88 88 88 80 80 80 80 80 80 80 80 80 88 88 88 88 80 88 92 92 92 48 24 24 64 64 76 88 88 76 80 88 68 88 92 92 92 92 92 92 92 92 92 92 92 92 92 92 92 92 92 92 92 92 92 92 92 92 92 92 92 92
88 88 88 88 88 88 88 88 80 80 80 80 80 80 80 80 76 76 80 80 80 88 88 80 88 92 92 92 88 68 64 88 68 68 76 76 80 92 88 68 88 92 92 92 92 88 80 80 88 92 92 92 92 92 92 92 92 92 92 92 92 92 92 92 92 92 92 92 92
88 88 88 88 88 88 88 88 88 80 80 80 80 80 80 80 80 80 80 76 68 76 88 88 88 88 92 92 92 92 88 68 64 64 76 88 92 92 92 92 92 92 92 92 92 88 80 80 88 88 92 92 92 92 92 92 92 92 88 80 92 92 92 92 92 92 92 92 92
88 88 88 88 88 88 88 88 88 80 80 80 80 88 92 88 80 80 80 76 80 80 80 80 68 76 80 92 92 92 88 68 64 68 76 80 92 92 92 92 92 92 92 92 92 92 92 88 92 92 92 92 92 92 92 92 92 92 92 92 92 88 88 92 92 92 92 92 92
88 88 88 88 88 88 88 88 88 88 88 80 80 88 88 88 88 88 80 80 80 80 76 56 64 64 64 80 64 68 80 88 80 68 68 80 92 92 92 92 88 88 92 92 92 92 92 92 92 92 92 92 92 92 92 92 92 88 88 92 92 92 92 92 92 92 92 92 92
88 88 88 88 88 88 88 88 80 80 80 80 88 92 88 88 92 92 88 88 88 64 44 48 64 56 56 68 76 80 88 92 88 80 80 80 88 88 88 88 88 88 88 88 92 92 92 92 92 92 92 92 92 92 92 80 88 88 88 92 92 92 88 88 92 92 92 92 92
88 88 88 88 88 88 88 88 80 80 80 88 88 92 92 92 92 92 92 92 92 80 76 76 88 92 92 88 88 88 88 92 88 80 80 76 88 92 92 88 88 92 92 92 92 92 92 92 92 92 92 80 92 92 92 88 92 92 92 92 92 88 88 92 92 92 92 92 92
88 88 88 88 88 88 88 88 88 88 88 92 92 92 92 92 92 88 88 92 92 92 92 92 92 92 92 88 92 92 92 92 92 92 88 88 80 88 92 92 92 92 92 92 92 92 92 92 92 92 92 92 92 92 92 92 92 92 92 92 92 92 92 92 92 92 92 92 92
88 88 88 92 88 88 92 92 92 92 92 92 92 92 92 92 92 92 92 92 92 92 92 92 92 88 88 88 92 92 92 92 92 92 92 92 92 92 88 92 92 92 92 92 80 88 92 92 92 92 92 92 92 92 92 92 92 92 92 92 92 92 92 92 92 92 92 92 88
88 88 88 92 88 88 88 88 92 92 92 92 92 92 92 92 92 92 92 92 92 92 88 76 64 48 48 88 92 88 88 80 88 88 92 92 92 92 92 92 92 92 92 92 92 88 80 80 88 92 92 92 92 92 92 92 92 92 92 92 92 92 92 92 92 92 92 92 92
88 88 92 92 88 88 88 88 88 88 92 92 92 92 92 92 92 92 92 92 92 88 80 88 88 88 88 88 92 88 80 80 80 88 92 92 92 92 92 92 92 92 92 92 92 88 88 88 92 92 92 92 92 92 92 92 92 92 92 92 92 92 92 92 92 92 92 92 92
88 88 88 88 88 88 92 92 88 88 92 92 92 92 92 92 92 92 92 92 92 88 80 80 88 92 92 92 88 80 88 92 88 80 88 92 92 92 92 92 92 92 92 92 92 92 92 92 92 92 92 92 92 92 92 92 92 92 92 92 92 92 92 92 92 92 92 92 92
92 88 88 88 88 92 92 92 88 92 92 92 92 92 92 92 92 92 92 92 92 80 76 76 88 92 92 92 80 80 88 92 88 88 92 92 92 92 92 92 92 92 92 100 100 92 92 92 92 92 92 92 92 92 92 92 92 92 92 92 92 92 92 92 92 92 92 92 92
92 92 92 92 92 92 92 92 80 88 92 92 92 92 92 92 92 92 92 92 92 80 76 88 88 92 92 92 76 76 88 92 92 92 92 92 92 92 92 92 92 92 92 92 92 92 92 92 92 92 92 88 92 92 92 92 92 92 92 92 92 92 92 92 92 92 92 92 92
92 92 92 92 92 92 92 88 76 76 88 92 92 92 92 92 92 92 92 92 92 88 80 92 92 92 92 92 88 88 92 92 92 92 92 92 92 92 92 92 92 92 92 92 92 92 92 92 92 92 92 92 92 92 92 92 92 92 92 92 92 92 92 92 92 92 92 92 92
92 92 92 88 92 92 92 92 80 80 88 92 92 92 92 88 92 92 92 92 92 92 92 92 92 92 92 92 92 92 92 92 92 92 92 92 92 92 92 92 92 92 92 92 92 92 92 92 92 92 92 92 92 92 92 92 92 92 92 92 92 92 100 100 100 92 92 100 92
92 92 92 92 92 92 92 92 92 88 88 88 88 92 92 88 92 92 92 92 92 92 92 92 92 92 92 92 92 92 92 92 92 92 92 92 92 92 92 92 92 92 92 92 92 92 92 92 92 92 92 92 92 92 92 92 92 92 92 92 92 92 92 100 100 92 92 92 92
92 92 92 92 92 92 92 92 92 88 80 88 80 88 92 88 92 92 92 92 92 92 92 92 92 92 92 92 92 92 92 92 92 92 92 92 92 92 92 92 92 92 92 92 92 92 92 92 92 92 92 92 92 92 92 92 92 92 92 92 92 92 92 92 92 92 92 92 92
92 92 92 92 92 92 92 92 88 80 80 88 88 88 92 92 92 92 92 92 92 92 92 92 92 92 92 92 92 92 92 92 92 92 92 92 92 92 92 92 92 92 92 92 92 92 92 92 92 92 92 92 92 92 92 92 92 92 92 92 92 92 92 92 92 92 92 92 92